| time (UTC) | temp F | wind direction | speed MPH | gust MPH | rain 1hr in | rain 24hr in | rain mn in | humidity % | barometer mb |
| 20260504231538 | 55 | 5 | 15.0 | 22.0 | 0.00 | 0.00 | 0.00 | 24 | 1015.4 |
| 20260504230035 | 55 | 24 | 14.0 | 26.0 | 0.00 | 0.00 | 0.00 | 24 | 1015.7 |
| 20260504224541 | 54 | 355 | 13.0 | 23.0 | 0.00 | 0.00 | 0.00 | 28 | 1015.8 |
| 20260504223038 | 54 | 355 | 17.0 | 25.0 | 0.00 | 0.00 | 0.00 | 28 | 1015.7 |
| 20260504221539 | 54 | 9 | 12.0 | 21.0 | 0.00 | 0.00 | 0.00 | 31 | 1015.8 |
| 20260504220046 | 54 | 23 | 15.0 | 27.0 | 0.00 | 0.00 | 0.00 | 33 | 1015.7 |
| 20260504214537 | 52 | 348 | 15.0 | 22.0 | 0.00 | 0.00 | 0.00 | 33 | 1015.9 |
| 20260504213058 | 53 | 341 | 14.0 | 29.0 | 0.00 | 0.00 | 0.00 | 33 | 1016.0 |
| 20260504211542 | 53 | 5 | 15.0 | 31.0 | 0.00 | 0.00 | 0.00 | 33 | 1016.2 |
| 20260504210037 | 53 | 11 | 19.0 | 26.0 | 0.00 | 0.00 | 0.00 | 34 | 1016.3 |
| 20260504204541 | 53 | 334 | 17.0 | 27.0 | 0.00 | 0.00 | 0.00 | 33 | 1016.2 |
| 20260504203035 | 53 | 352 | 18.0 | 30.0 | 0.00 | 0.00 | 0.00 | 34 | 1016.2 |
| 20260504201542 | 54 | 348 | 17.0 | 31.0 | 0.00 | 0.00 | 0.00 | 34 | 1016.1 |
| 20260504200041 | 54 | 15 | 18.0 | 30.0 | 0.00 | 0.00 | 0.00 | 33 | 1016.1 |
| 20260504194537 | 54 | 336 | 20.0 | 31.0 | 0.00 | 0.00 | 0.00 | 33 | 1016.1 |
| 20260504193050 | 54 | 355 | 21.0 | 29.0 | 0.00 | 0.00 | 0.00 | 33 | 1016.0 |
| 20260504191536 | 53 | 355 | 18.0 | 28.0 | 0.00 | 0.00 | 0.00 | 35 | 1016.1 |
| 20260504190040 | 53 | 340 | 17.0 | 27.0 | 0.00 | 0.00 | 0.00 | 37 | 1016.2 |
| 20260504184543 | 53 | 360 | 17.0 | 25.0 | 0.00 | 0.00 | 0.00 | 37 | 1016.2 |
| 20260504183044 | 53 | 14 | 15.0 | 25.0 | 0.00 | 0.00 | 0.00 | 36 | 1016.0 |
| 20260504181537 | 53 | 323 | 17.0 | 26.0 | 0.00 | 0.00 | 0.00 | 37 | 1016.2 |
| 20260504180054 | 52 | 337 | 17.0 | 26.0 | 0.00 | 0.00 | 0.00 | 37 | 1016.4 |
| 20260504174536 | 53 | 343 | 15.0 | 25.0 | 0.00 | 0.00 | 0.00 | 39 | 1016.4 |
| 20260504173038 | 52 | 349 | 15.0 | 23.0 | 0.00 | 0.00 | 0.00 | 39 | 1016.5 |
| 20260504171548 | 51 | 350 | 12.0 | 24.0 | 0.00 | 0.00 | 0.00 | 39 | 1016.5 |
| 20260504081537 | 46 | 5 | 14.0 | 25.0 | 0.00 | 0.00 | 0.00 | 58 | 1015.2 |
| 20260504044543 | 53 | 20 | 13.0 | 23.0 | 0.00 | 0.00 | 0.00 | 40 | 1012.0 |
| 20260504043044 | 54 | 46 | 13.0 | 24.0 | 0.00 | 0.00 | 0.00 | 39 | 1011.4 |
| 20260504041539 | 55 | 32 | 11.0 | 22.0 | 0.00 | 0.00 | 0.00 | 40 | 1010.8 |
| 20260504040046 | 55 | 13 | 6.0 | 11.0 | 0.00 | 0.00 | 0.00 | 40 | 1010.2 |
| 20260504034544 | 57 | 16 | 8.0 | 13.0 | 0.00 | 0.00 | 0.00 | 39 | 1009.9 |
| 20260504033043 | 58 | 21 | 10.0 | 15.0 | 0.00 | 0.00 | 0.00 | 37 | 1009.4 |
| 20260504031540 | 59 | 43 | 10.0 | 16.0 | 0.00 | 0.00 | 0.00 | 36 | 1009.1 |
| 20260504030045 | 61 | 35 | 10.0 | 22.0 | 0.00 | 0.00 | 0.00 | 35 | 1008.6 |
| 20260504024537 | 62 | 35 | 13.0 | 19.0 | 0.00 | 0.00 | 0.00 | 33 | 1008.4 |
| 20260504023043 | 64 | 28 | 7.0 | 13.0 | 0.00 | 0.00 | 0.00 | 30 | 1008.2 |
| 20260504021538 | 66 | 34 | 9.0 | 21.0 | 0.00 | 0.00 | 0.00 | 27 | 1007.9 |
| 20260504020046 | 69 | 42 | 7.0 | 12.0 | 0.00 | 0.00 | 0.00 | 22 | 1007.7 |
| 20260504014548 | 70 | 34 | 8.0 | 12.0 | 0.00 | 0.00 | 0.00 | 20 | 1007.7 |
| 20260504013048 | 71 | 44 | 6.0 | 11.0 | 0.00 | 0.00 | 0.00 | 20 | 1007.9 |
| 20260504011546 | 71 | 14 | 6.0 | 13.0 | 0.00 | 0.00 | 0.00 | 20 | 1008.0 |
| 20260504010041 | 72 | 10 | 8.0 | 14.0 | 0.00 | 0.00 | 0.00 | 19 | 1008.0 |
| 20260504004539 | 72 | 26 | 8.0 | 14.0 | 0.00 | 0.00 | 0.00 | 19 | 1008.2 |
| 20260504003037 | 73 | 20 | 8.0 | 16.0 | 0.00 | 0.00 | 0.00 | 20 | 1008.3 |
| 20260504001539 | 73 | 352 | 12.0 | 17.0 | 0.00 | 0.00 | 0.00 | 20 | 1008.3 |
| 20260504000047 | 73 | 14 | 10.0 | 14.0 | 0.00 | 0.00 | 0.00 | 19 | 1008.5 |
| 20260503234539 | 74 | 5 | 11.0 | 19.0 | 0.00 | 0.00 | 0.00 | 20 | 1008.7 |
| 20260503233037 | 74 | 352 | 12.0 | 19.0 | 0.00 | 0.00 | 0.00 | 20 | 1008.6 |